Location: *
(52.2090°N, 4.1550°W)
Time: 23:05:37
(UTC+00:00)

NOSS 2-3 (D) - Pass Details

Date: 19 July 2019
Orbit: 600 x 1612 km, 63.4° (Epoch: 23 August)

Event Time Altitude Azimuth Distance (km) Brightness Sun altitude
Exits shadow 22:59:19 23° 176° (S) 1,378 4.8 -14.8°
Maximum altitude 23:01:37 40° 122° (ESE) 1,023 4.3 -14.9°
Drops below altitude 10° 23:06:33 10° 54° (NE) 2,382 6.8 -15.2°
Sets 23:09:22 0° 48° (NE) 3,473 7.7 -15.3°
